Location: Foligno
(42.9600°N, 12.7050°E)
Time: 17:43:24
(UTC+02:00)

ISS - Pass Details

Date: 25 May 2020
Orbit: 417 x 420 km, 51.6° (Epoch: 26 May)

Event Time Altitude Azimuth Distance (km) Brightness Sun altitude
Rises 22:20:08 0° 302° (WNW) 2,366 1.5 -15.4°
Reaches altitude 10° 22:22:35 10° 319° (NW) 1,501 0.4 -15.7°
Maximum altitude 22:25:14 21° 11° (NNE) 998 -1.4 -16.0°
Drops below altitude 10° 22:27:54 10° 64° (ENE) 1,500 -1.1 -16.3°
Enters shadow 22:28:26 - 69° (ENE) 1,672 -0.9 -16.3°
